Lapse_Rate
7.5 7.3 7.2 7.1 7.0 6.8 6.6 6.7 6.9 6.9 6.9 6.8 6.6 6.3 6.3 6.4 6.3 6.1 6.0 5.8 5.7 5.5 5.4 5.3 5.2 5.2 5.3 5.4 5.4 5.4 5.5 5.5
7.4 7.1 7.2 7.1 7.1 7.0 6.9 6.9 6.9 6.9 7.1 7.1 6.9 6.7 6.5 6.3 6.1 6.0 6.0 6.0 5.9 5.6 5.4 5.3 5.1 5.2 5.2 5.3 5.2 5.2 5.3 5.3
7.2 7.4 7.2 7.0 7.1 7.1 7.0 6.9 6.9 6.7 6.6 6.6 6.5 6.4 6.4 6.2 6.2 5.9 5.6 5.3 5.4 5.7 5.9 5.8 5.5 5.4 5.4 5.6 5.6 5.6 5.6 5.6
7.2 7.1 7.0 7.1 7.0 6.9 6.9 6.8 6.5 6.2 5.9 5.9 5.9 6.2 6.2 6.1 6.2 6.0 5.7 5.5 5.5 5.5 5.6 5.5 5.3 5.2 5.1 5.0 4.8 5.1 5.4 5.5
6.9 6.9 6.8 6.5 6.5 6.7 6.8 6.8 6.6 6.4 6.3 6.0 5.7 5.7 5.5 5.3 5.1 5.6 6.1 6.0 5.8 5.6 5.2 5.1 5.0 5.0 5.0 4.7 4.8 4.4 4.5 5.1
6.8 6.6 6.5 6.5 6.7 6.8 6.9 6.8 6.4 6.0 6.3 6.2 6.2 5.8 6.0 5.8 6.1 6.1 6.2 6.3 5.9 5.5 5.4 5.3 5.4 5.3 4.8 4.8 4.5 4.7 4.6 4.8
6.5 6.7 6.8 6.8 6.5 6.4 6.1 5.9 6.0 6.5 6.5 6.4 6.3 6.3 6.3 6.5 6.3 6.2 6.4 6.4 6.2 6.1 6.1 6.0 5.7 6.1 5.8 5.5 5.5 5.3 5.2 5.0
6.2 6.3 6.3 6.1 6.2 6.1 6.0 6.0 5.9 5.9 6.2 6.2 6.1 6.0 6.2 6.1 6.2 6.3 6.4 6.3 6.3 6.4 6.4 6.0 5.8 6.2 6.1 6.3 6.0 5.8 5.7 5.9
6.1 6.1 6.1 6.2 6.1 5.9 5.9 5.9 5.7 5.9 6.0 6.0 6.2 6.4 6.3 6.4 6.4 6.5 6.4 6.3 6.2 6.2 6.3 6.1 5.8 6.2 6.1 6.3 6.3 6.1 6.5 7.1
6.2 6.2 6.2 6.0 6.0 6.3 6.2 6.2 6.2 6.1 6.2 6.4 6.4 6.4 6.4 6.4 6.3 6.3 6.2 6.1 6.0 6.1 6.1 6.0 5.9 6.1 6.3 6.4 6.8 6.6 6.5 6.6
6.2 6.4 6.5 6.7 6.5 6.2 6.2 6.3 6.4 6.5 6.3 6.7 6.8 6.7 6.6 6.5 6.4 6.4 6.1 5.8 5.5 5.3 5.3 5.5 5.7 5.9 6.4 6.6 6.6 6.7 6.6 6.4
6.7 6.7 6.7 6.5 6.4 6.3 6.3 6.5 6.6 6.6 6.7 6.5 6.8 6.8 6.8 6.9 6.8 6.6 6.0 5.6 5.5 5.2 5.1 5.3 5.5 5.6 6.2 6.5 6.7 6.7 6.8 6.7
6.4 6.3 6.2 6.0 6.0 5.9 6.0 6.4 6.6 6.6 6.6 6.9 7.2 7.4 7.3 7.0 6.8 6.3 5.7 5.6 5.5 5.4 5.1 5.2 5.5 5.9 6.4 6.6 6.5 6.5 6.4 6.3
5.6 5.6 5.6 5.8 5.9 6.2 6.3 6.6 6.5 6.9 6.8 6.8 6.9 6.8 7.1 6.8 6.6 6.1 5.8 5.8 5.7 5.6 5.4 5.6 6.2 6.2 6.3 6.3 6.4 6.3 6.1 5.9
5.9 5.9 6.2 6.1 6.1 6.2 6.4 6.5 6.6 6.6 6.6 6.7 6.8 6.8 6.5 6.6 5.9 5.8 6.2 6.1 5.9 5.9 5.8 6.1 6.2 6.2 6.1 6.1 6.0 5.9 5.7 5.5
6.5 6.2 6.0 6.0 6.0 6.0 6.3 6.2 6.3 6.5 6.8 6.9 6.8 6.6 5.5 5.9 6.1 5.7 6.0 5.9 6.0 6.1 6.3 6.3 5.7 5.9 5.9 5.8 5.6 5.3 5.3 5.3
6.4 5.9 5.8 5.9 6.0 6.1 6.0 6.2 6.3 6.6 7.0 6.8 6.3 5.9 5.9 6.3 6.0 6.1 6.6 6.9 6.9 6.4 6.4 6.4 6.3 6.2 6.0 5.8 5.7 5.5 5.5 5.7
5.9 6.1 5.8 5.5 5.5 5.9 6.4 6.8 6.8 6.6 6.2 6.1 5.9 6.0 6.2 6.1 6.3 6.8 6.7 6.4 6.2 6.1 6.1 6.1 6.0 5.9 5.9 5.7 5.5 5.4 5.6 5.7
6.0 5.8 5.6 5.5 5.9 6.4 6.6 6.5 6.4 6.3 6.2 6.2 6.0 6.0 6.1 6.6 6.5 6.4 6.4 6.2 6.1 6.0 6.0 5.9 5.9 6.0 5.7 5.4 5.4 5.5 5.7 6.0
Wind_Speed
6 7 8 8 7 7 6 5 7 5 2 2 2 3 5 9 10 12 14 14 15 12 8 8 11 4 4 3 4 3 3 3
4 5 7 8 6 7 7 7 8 4 2 2 2 4 3 4 8 15 16 16 16 13 7 6 8 6 7 6 4 5 4 3
6 6 4 5 7 7 7 8 7 6 3 3 3 2 3 3 5 11 16 17 17 14 8 9 9 6 6 7 6 3 3 4
5 6 5 2 6 8 8 8 7 7 6 1 1 2 3 3 4 4 9 18 18 16 14 10 9 8 8 7 7 7 4 3
4 5 6 8 9 7 7 8 7 5 3 4 4 4 6 5 6 5 7 12 15 18 17 12 11 7 6 4 4 3 3 4
8 8 7 6 3 4 4 5 5 5 5 4 5 6 7 8 7 7 9 7 11 13 14 10 5 3 4 5 4 5 2 3
4 5 4 5 7 8 7 7 4 6 5 6 7 8 10 7 8 6 7 5 5 6 5 6 8 8 7 5 4 4 3 3
5 7 3 5 7 6 5 6 6 7 9 9 10 11 10 9 9 6 7 2 1 4 7 9 8 7 6 4 4 1 1 3
4 6 6 5 4 5 5 7 8 9 9 11 10 10 6 6 6 5 4 2 4 6 9 8 6 5 3 3 2 0 1 2
8 7 7 7 7 7 7 8 9 9 8 7 9 8 8 7 5 0 4 7 7 6 6 5 5 4 4 2 2 4 5 6
6 6 6 6 7 7 8 7 8 8 8 7 8 11 7 5 3 6 7 7 6 6 5 4 3 3 3 7 6 5 4 4
4 5 6 7 7 7 7 7 8 8 7 8 8 8 6 2 3 5 6 5 5 4 4 4 3 5 6 5 4 5 5 5
6 7 7 7 8 8 8 7 7 7 7 7 7 6 2 3 5 5 4 3 2 3 2 3 4 5 5 5 5 5 5 6
7 7 8 7 7 7 7 6 6 7 7 7 7 5 3 2 0 2 2 1 4 3 2 4 4 4 4 5 5 6 5 5
9 7 9 8 8 7 6 6 5 6 6 6 6 5 3 3 3 5 5 4 4 4 4 4 4 4 4 4 5 4 4 4
8 9 8 8 7 6 6 6 6 6 6 6 3 3 4 5 6 7 7 6 5 4 3 4 4 3 3 4 3 4 5 7
8 12 11 10 8 6 5 6 6 6 5 2 2 2 3 3 2 8 7 5 5 3 4 5 5 4 6 8 8 5 6 9
14 14 12 12 8 6 6 7 5 4 4 4 3 4 4 4 5 6 5 3 3 5 5 5 5 5 11 12 13 7 7 9
14 13 12 8 6 6 6 6 5 5 5 5 5 4 4 5 3 4 4 3 3 3 4 5 4 5 13 16 17 8 7 9
Wind_Direction
294 204 180 166 171 180 178 191 209 205 195 212 254 263 257 243 233 227 230 223 212 202 204 202 198 193 203 196 202 207 198 218
14 117 135 133 153 172 187 194 212 166 189 202 251 237 220 238 237 233 226 224 220 208 208 204 196 198 200 193 187 204 234 207
67 103 119 153 171 199 212 223 215 211 200 211 191 200 233 241 232 240 234 226 219 211 206 211 204 200 207 196 182 181 211 184
138 144 157 171 198 214 219 229 236 231 237 295 295 336 304 283 252 246 234 225 226 215 212 213 209 200 207 201 187 177 192 190
153 173 196 209 227 226 240 243 251 268 264 259 243 253 267 253 255 248 249 224 231 229 225 216 211 202 190 176 156 164 149 167
176 195 207 232 277 275 326 338 333 320 301 266 271 263 260 266 270 271 265 255 234 238 231 222 195 126 113 122 117 115 104 115
289 326 345 350 17 18 14 11 350 6 358 309 263 267 272 277 277 278 275 255 251 237 174 126 114 102 93 85 83 92 138 143
304 320 331 42 36 26 16 12 333 326 349 329 320 310 302 283 278 275 281 281 26 60 100 98 92 95 99 126 111 53 337 60
49 56 60 45 46 7 346 349 338 337 327 320 312 301 291 283 281 290 282 133 87 72 79 84 92 103 115 85 93 318 266 274
21 30 28 20 347 318 325 336 327 318 311 307 301 300 298 291 301 21 105 107 111 103 103 105 80 29 14 320 269 245 236 241
29 25 1 338 324 313 320 314 299 292 304 310 313 299 292 272 179 133 127 127 127 139 134 99 28 337 242 231 224 231 232 246
326 319 315 308 309 312 306 301 301 305 307 297 297 291 282 208 177 126 130 140 165 186 119 63 237 231 233 242 256 257 254 256
289 295 310 310 308 307 299 294 304 306 306 308 306 308 297 165 159 156 163 186 143 353 62 208 239 259 276 278 278 279 278 276
286 291 298 290 293 289 301 311 323 315 316 320 315 291 257 264 198 125 127 121 355 348 291 264 272 288 293 289 280 279 277 274
273 285 293 288 282 285 304 315 300 307 311 292 276 286 261 139 43 27 34 14 329 303 303 310 325 321 307 291 287 295 308 294
287 292 292 281 283 289 296 286 296 314 303 302 320 66 61 68 38 6 360 327 268 310 337 343 316 309 302 331 307 289 276 272
287 296 296 292 279 284 291 307 316 318 312 352 32 55 57 338 274 230 243 306 323 349 347 328 328 325 314 297 281 264 267 280
320 310 297 291 291 303 304 297 302 308 290 276 242 242 256 272 267 263 282 310 355 343 325 328 323 308 309 311 305 289 277 280
310 306 314 325 322 310 299 306 299 285 273 297 308 304 292 303 312 345 349 349 321 311 325 325 319 309 315 312 306 293 280 278